Location: Felldorf
(48.4324°N, 8.7839°E)
Time: 21:33:30
(UTC+00:00)

Daily predictions for brighter satellites

Satellite Brightness Start Highest point End
(mag) Time Altitude Azimuth Time Altitude Azimuth Time Altitude Azimuth
Cosmos 1624 Rocket 4.1 18:05:06 10° S 18:10:16 57° ESE 18:15:30 10° NNE
Cosmos 1470 Rocket 3.6 18:06:56 10° S 18:11:23 69° E 18:15:51 10° NNE
Cosmos 2016 Rocket 4.5 18:07:55 10° N 18:13:35 38° ENE 18:19:15 10° SE
NOSS 0 Rocket 4.4 18:08:15 10° NNW 18:14:09 43° NE 18:19:59 10° ESE
Cosmos 1420 Rocket 4.0 18:11:29 10° S 18:16:37 61° ESE 18:21:45 10° NNE
Cosmos 2173 Rocket 4.1 18:12:32 10° N 18:18:54 64° ENE 18:25:13 10° SSE
Okean-O 3.8 18:16:02 10° ESE 18:19:35 24° ENE 18:23:08 10° N
Cosmos 1263 4.2 18:17:26 10° S 18:20:57 68° E 18:24:00 10° NNE
Okean 2 4.5 18:18:36 10° NNE 18:22:00 25° ENE 18:25:24 10° SE
Timation 1 Rocket 4.4 18:16:44 10° S 18:22:35 57° ESE 18:28:29 10° NE
Okean O Rocket 1.6 18:23:20 10° SSE 18:27:43 69° ENE 18:32:06 10° N
DMSP B5D1-3 4.5 18:23:13 10° NNE 18:28:24 75° ESE 18:33:33 10° S
Cosmos 2242 Rocket 4.1 18:24:58 10° N 18:29:19 41° ENE 18:33:38 10° SE
Cosmos 2100 Rocket 4.0 18:23:03 10° N 18:29:27 79° E 18:35:47 10° SSE
YAOGAN 1 3.3 18:25:39 10° S 18:29:54 58° W 18:34:11 10° NNW
GEOS 3 Rocket 3.7 18:24:35 10° NE 18:30:00 72° SE 18:35:22 10° SSW
CSL-04 Rocket 4.1 18:26:55 10° SE 18:32:10 46° ENE 18:37:27 10° N
ISS -3.2 18:29:08 10° W 18:32:26 54° NNW 18:35:45 10° ENE
In-Cosmos 22 4.3 18:27:12 10° NNW 18:32:52 86° W 18:38:37 10° S
USA 215 3.7 18:26:35 10° NE 18:33:03 65° NNW 18:39:30 10° WSW
EXPRESS MD2 4.2 18:32:42 10° W 18:34:25 19° SSW 18:36:07 10° SSE
Cosmos 676 Rocket 4.1 18:29:16 10° NNW 18:34:31 86° WSW 18:39:46 10° SSE
SL-27 R/B 2.1 18:31:28 10° SSW 18:34:45 76° ESE 18:38:01 10° NNE
Cosmos 1452 Rocket 4.2 18:30:19 10° SSE 18:34:53 31° E 18:39:29 10° NE
KORONAS-FOTON 3.8 18:31:40 10° N 18:35:29 87° W 18:39:19 10° S
Cosmos 2237 Rocket 2.9 18:33:39 10° NNW 18:38:54 37° NE 18:43:20 14° ESE
Exosat Rocket 3.8 18:35:54 10° SSW 18:41:03 82° ESE 18:47:43 10° NNE
USA 186 1.7 18:41:11 10° SSE 18:44:12 55° ENE 18:47:16 10° N
Okean 3 4.0 18:44:26 10° NNW 18:48:35 62° W 18:52:46 10° S
Meteor 1-21 4.3 18:42:58 10° NNW 18:48:37 87° WSW 18:54:16 10° S
Cosmos 1741 Rocket 4.2 18:45:07 10° NNW 18:50:14 52° ENE 18:54:39 14° SE
CZ-4B R/B 4.0 18:48:05 10° S 18:53:38 56° W 18:59:11 10° NNW
Cosmos 1707 3.9 18:50:02 10° NNW 18:53:41 45° W 18:57:17 10° SSW
Cosmos 2322 4.2 18:49:22 10° NNW 18:54:58 62° WSW 19:00:31 10° SSE
IRS-1C Rocket 4.4 18:50:13 11° SE 18:54:58 46° ENE 19:00:00 10° N
Okean 1-7 3.8 18:50:53 10° NNW 18:55:10 55° W 18:59:24 10° S
Cosmos 1674 3.6 18:54:29 10° NNW 18:58:06 49° W 19:01:41 10° S
Cosmos 1805 3.4 18:54:40 10° SSE 18:58:20 47° E 19:02:02 10° NNE
Lacrosse 5 rocket 2.5 18:54:57 10° S 18:58:22 23° SE 18:59:08 22° ESE
Cosmos 1980 3.9 18:54:48 10° NNW 19:00:23 54° ENE 19:04:23 19° SE
Cosmos 2219 Rocket 3.4 18:56:08 10° NW 19:01:30 44° WSW 19:06:50 10° S
Cosmos 1933 Rocket 4.1 18:58:26 10° SSW 19:02:43 62° WNW 19:07:03 10° N
Cosmos 1975 3.0 18:58:50 10° SSW 19:02:47 75° W 19:06:47 10° N
SJ-6B 3.0 18:59:09 10° S 19:03:04 73° WSW 19:06:56 10° NNW
Cosmos 2333 Rocket 4.2 18:58:24 10° NW 19:03:19 30° WSW 19:08:12 10° SSW
Cosmos 1726 1.9 19:04:21 10° S 19:07:47 58° E 19:11:16 10° NNE
Cosmos 1864 Rocket 4.5 19:01:52 10° N 19:08:07 90° SW 19:14:15 10° S
Cosmos 2233 Rocket 4.0 19:02:02 10° N 19:08:08 60° ENE 19:14:14 10° SSE
CSL-04 Debris 4.2 19:03:06 10° SSE 19:08:31 86° WSW 19:14:01 10° NNW
Ariane Rocket 4.2 19:09:42 21° E 19:11:11 24° ENE 19:15:11 10° N
BREEZE-M DEB (TANK) 4.2 19:09:46 10° W 19:12:06 15° SW 19:13:44 10° S
Cosmos 1869 Rocket 3.4 19:07:59 10° S 19:12:18 87° ESE 19:16:40 10° N
Cosmos 2061 Rocket 4.0 19:05:50 10° N 19:12:20 81° E 19:18:45 10° S
COSMOS 2428 3.3 19:09:06 10° NW 19:14:42 57° WSW 19:20:18 10° S
Landsat 5 3.7 19:11:44 10° NNE 19:15:23 39° E 19:17:14 24° SSE
SL-14 R/B 3.1 19:12:52 10° N 19:16:44 81° ENE 19:19:24 19° SSE
USA 281 4.3 19:14:13 10° NNE 19:20:25 46° NW 19:26:35 10° WSW
Cosmos 2297 Rocket 2.4 19:15:27 10° S 19:20:46 44° ESE 19:26:07 10° NE
NOSS 3-2 (A) 4.4 19:15:11 10° NW 19:22:36 67° SW 19:30:28 13° SSE
Cosmos 1867 3.5 19:19:07 10° SSW 19:24:28 62° ESE 19:29:52 10° NE
Resurs 01 Rocket 1.6 19:25:55 29° SSE 19:28:06 67° ENE 19:32:30 10° N
Cosmos 1725 Rocket 4.3 19:23:12 10° NNW 19:29:20 68° W 19:35:27 10° S
Cosmos 1733 3.9 19:28:49 10° SSW 19:32:30 53° WNW 19:36:13 10° N
CZ-4C R/B 3.7 19:26:33 10° NW 19:32:40 36° NNE 19:36:50 22° E
CENTAUR R/B 3.7 19:25:01 10° NW 19:33:05 59° WSW 19:41:25 12° SSE
NOSS 3-2 (C) 4.1 19:25:47 10° NW 19:33:14 89° SW 19:38:47 25° SE
Cosmos 1271 Rocket 4.1 19:36:59 24° NE 19:36:59 24° NE 19:38:48 10° NNE
MOS 1 4.3 19:33:10 27° SE 19:36:17 66° ENE 19:41:57 10° N
Cosmos 2227 Rocket 2.6 19:31:28 10° S 19:36:37 37° ESE 19:41:46 10° NE
IRS-P2 Rocket 4.5 19:33:49 28° SSE 19:36:38 73° ENE 19:41:53 10° NNW
CZ-4 R/B 4.1 19:34:45 10° SW 19:37:24 18° W 19:40:06 10° NW
Terra 3.3 19:42:45 21° NE 19:42:45 21° NE 19:45:59 10° NNE
Iridium 4 Rocket 4.0 19:38:53 10° NNW 19:42:54 45° W 19:46:51 10° SSW
Geosat 4.1 19:40:50 28° SSE 19:43:28 75° WSW 19:48:31 10° NNW
USA 238 DEB 3.9 19:39:32 10° NW 19:46:52 90° NNE 19:50:50 33° SE
USA 238 3.9 19:39:38 10° NW 19:46:58 89° NE 19:50:55 33° SE
MetOp-A 4.0 19:46:21 41° SE 19:48:06 66° ENE 19:53:16 10° N
SL-16 R/B 2.7 19:43:00 10° NNW 19:48:25 42° NE 19:49:39 37° E
Cosmos 1674 Rocket 3.5 19:48:18 10° N 19:52:38 61° ENE 19:52:42 61° E
Cosmos 1733 Rocket 2.9 19:53:01 41° S 19:54:30 86° E 19:58:51 10° N
Okean-O 3.7 19:52:19 14° SSW 19:55:49 42° W 20:00:03 10° NNW
CARTOSAT-1 3.4 19:58:45 69° SSE 19:59:16 87° ENE 20:03:36 10° NNW
Meteor 2-13 Rocket 4.3 19:53:13 10° S 19:59:21 81° E 20:05:33 10° NNE
SPOT 1/Viking Rocket 4.0 19:55:57 20° S 19:59:28 58° W 20:04:38 10° NNW
Cosmos 1110 Rocket 4.2 19:56:25 10° SSW 20:01:37 71° WNW 20:06:49 10° NNE
SPOT 5 3.3 20:02:23 43° ENE 20:02:23 43° ENE 20:06:39 10° N
Cosmos 1378 Rocket 3.4 19:59:26 10° N 20:03:52 83° E 20:04:03 80° SE
Cosmos 2221 Rocket 3.5 20:00:29 10° N 20:04:56 83° W 20:05:26 69° S
Cosmos 1464 Rocket 4.1 20:00:57 10° N 20:07:14 59° ENE 20:08:27 51° ESE
BREEZE-M DEB (TANK) 3.2 20:04:29 10° WNW 20:08:22 53° W 20:08:22 53° W
ISS -2.4 20:06:16 10° WNW 20:08:42 39° NW 20:08:42 39° NW
USA 215 4.2 20:10:32 15° ENE 20:15:31 43° N 20:21:36 10° WNW
ADEOS Rocket 3.4 20:15:26 46° E 20:16:22 50° ENE 20:23:05 10° N
Cosmos 1766 4.1 20:17:37 45° W 20:18:00 47° WNW 20:21:42 10° N
Cosmos 1891 Rocket 4.4 20:11:57 10° N 20:18:07 86° ENE 20:19:48 52° SSE
Meteor 1-22 Rocket 4.3 20:20:17 63° ESE 20:20:46 66° E 20:26:47 10° NNE
Cosmos 2237 Rocket 3.1 20:17:44 10° NW 20:23:02 42° WSW 20:25:11 30° SSW
H-2A R/B 2.8 20:23:55 67° N 20:23:55 67° N 20:27:48 10° NNW
Meteor 1-15 Rocket 4.2 20:24:42 56° S 20:26:01 86° E 20:31:55 10° NNE
MetOp-B 4.3 20:29:53 59° SSW 20:30:43 69° WSW 20:36:06 10° NNW
Cosmos 2346 Rocket 4.4 20:31:21 52° S 20:33:01 88° W 20:39:16 10° N
ATLAS CENTAUR R/B 4.2 20:18:37 10° WSW 20:33:52 74° NNW 20:40:10 14° NE
Cosmos 968 Rocket 4.1 20:31:52 10° NNW 20:36:49 48° WSW 20:37:26 45° SW
Lacrosse 5 rocket 3.2 20:32:42 10° WSW 20:34:34 25° WSW 20:34:34 25° WSW
SJ 16-02 2.7 20:33:36 10° NNW 20:36:14 32° N 20:36:14 32° N
Meteor 1-12 Rocket 4.4 20:38:17 48° SSW 20:39:56 73° WNW 20:45:41 10° N
ERS-1 Rocket 3.3 20:44:49 61° N 20:44:49 61° N 20:48:58 10° NNW
FALCON 9 R/B 4.1 20:29:45 10° WSW 20:44:18 32° SSW 20:45:16 32° SSW
Meteor 1-24 Rocket 3.8 20:40:55 10° NNW 20:46:50 76° W 20:47:15 72° SW
Ariane Rocket 3.4 20:49:52 55° W 20:49:52 55° W 20:54:48 10° NNW
BREEZE-M DEB (TANK) 3.4 20:45:54 10° WNW 20:50:43 61° W 20:50:43 61° W
Cosmos 1943 4.1 20:50:07 10° NNW 20:54:31 39° NNE 20:54:31 39° NNE
Meteor 2-15 Rocket 4.4 20:50:44 10° NNW 20:56:53 76° W 20:57:03 75° WSW
Spot 2 Rocket 4.0 21:01:35 56° NW 21:01:35 56° NW 21:05:43 10° NNW
Cosmos 2297 Rocket 3.6 20:59:44 10° WSW 21:04:56 36° NW 21:10:09 10° NNE
Resurs 01 Rocket 4.2 21:03:27 13° WSW 21:05:02 15° W 21:07:33 10° NW
Cosmos 2034 Rocket 4.0 21:01:57 10° NNW 21:07:51 74° WNW 21:07:51 74° WNW
SPOT 3 Rocket 4.4 21:12:40 46° WNW 21:12:40 46° WNW 21:17:04 10° NNW
Cosmos 2219 3.8 21:13:55 53° NNW 21:13:55 53° NNW 21:18:34 10° NNE
ATLAS 3B R/B 3.8 21:09:18 10° NW 21:16:12 38° NNE 21:17:41 35° NE
Terra 3.3 21:21:29 35° NW 21:21:29 35° NW 21:24:22 10° NNW
Cosmos 2227 Rocket 3.2 21:15:19 10° SW 21:20:36 42° NW 21:26:00 10° NNE
CZ-4C R/B 2.8 21:14:49 10° NW 21:21:59 87° SW 21:22:00 87° SW
SL-16 R/B 3.5 21:27:17 10° NW 21:31:32 35° W 21:31:32 35° W
USA 215 3.9 21:57:51 49° NNE 21:57:51 49° NNE 22:04:05 10° WNW
ADEOS Rocket 4.3 22:02:22 35° W 22:02:22 35° W 22:08:22 10° NNW
Cosmos 2263 Rocket 4.1 22:13:19 23° NNE 22:13:19 23° NNE 22:15:27 10° NNE
SJ 16-02 4.4 22:12:48 10° NW 22:13:07 11° NW 22:13:07 11° NW
ATLAS 2AS CENTAUR R/B 4.3 22:29:02 28° NE 22:29:02 28° NE 22:32:05 10° NE
ATLAS CENTAUR R/B 4.2 22:40:19 10° WNW 22:49:39 40° N 22:49:44 40° N
ATLAS 3B R/B 3.8 23:00:08 10° NW 23:04:56 44° NW 23:04:56 44° NW
Cosmos 2344 4.3 23:11:56 10° NW 23:18:50 60° WNW 23:18:50 60° WNW
